STARLINK-4557 (53432 NORAD) Tracking and Keplerian Element Data

This shows tracking and keplerian element data for the satellite.

Feedback or suggestion? Click here.




ElementValue
Catalog53432
NameSTARLINK-4557
Epoch Orbit799
Epoch Day270.25001157
Epoch Year2022
RAAN10.2145
Inclination53.2178
Eccentricity0.000275
Argument of Perigee24.7466
Mean Anonmoly158.743
Mean Motion15.73199877
Decay Rate0.0008627
L11 53432U 22097AW 22270.25001157 .00086270 00000+0 61274-3 0 9996
L22 53432 53.2178 10.2145 0002750 24.7466 158.7430 15.73199877 7991

Live tracking and technical data element details for STARLINK-4557 (NORAD 53432). STARLINK-4557 can be tracked NOW for your location showing map with azimuth and elevation plus other details from your city location.

Track the satellite on the map from your city or location and see movement details for azimuth, elevation, latitude, longitude, range, height, and movement on the map or in text.







IsCatalogInMostPopularTable: catalog: 53432, numindb: 3
Update: records affected: 1



GetName: 53432 STARLINK-4557

Hit Count: updated at: Wed, 05 Oct 2022 08:11:44 GMT